User: anonymous   Login
Location: ActonStarParty
(42.4766°N, 71.4538°W)
Time: 21:53:55
(UTC-04:00)
Language:

ATLAS 5 CENTAUR R/B - Orbit

View from above orbital plane
View from above orbital plane
View from above satellite
View from above satellite

Ground track
Ground track

The orbit data is extracted from the following two-line orbital elements,

1 32379U 07060B   15070.66572705 0.00004000  00000-0  14291-2 0    04
2 32379  60.8343 285.4193 5193765 211.5060 102.7890  5.24129600    09
Epoch (UTC): 11 March 2015 15:58:38
Eccentricity: 0.5193765
inclination: 60.8343°
perigee height: 350 km
apogee height: 14892 km
right ascension of ascending node: 285.4193°
argument of perigee: 211.5060°
revolutions per day: 5.24129600
mean anomaly at epoch: 102.7890°
orbit number at epoch: 0

The dashed part of the orbit path shows where the satellite is in the earth's shadow,  

DLR